STARLINK-31127, 58765

Orbit data source: Space-Track

STARLINK-31127, 58765 is a payload satellite owned by SpaceX/Seattle (US) in LEO that was launched on Sun, 14 Jan 2024 UTC via an FALCON 9 launch vehicle from the Air Force Western Test Range (AFWTR). Payload-class satellites include a variety of spacecraft equipped with specific instruments for various scientific and technological missions. These include communications satellites like Starlink; space stations such as the ISS; scientific satellites like the Hubble; Earth observation satellites from companies like Planet Labs, Umbra, and HawkEye 360; GPS; miniature CubeSats for education and research; and military/defense satellites.

Loading next visibility...
Identifier
58765, 2024-011A
Orbit
LEO
Country
Flag of USUS
Related business
Manufacturer
SpaceX/Seattle
Mission
Operational Commercial Communications
Bus & Motor
STARLINK V2M, Unknown motor
Mass
730 kg wet, ~700 kg dry
Launch date (UTC)
2024-01-14 (2 years ago)
Launch vehicle
FALCON 9
Launch site
Air Force Western Test Range (AFWTR)
Object type
Payload
Rocket body
Debris
Shape & HBR
Box + 2 Pan, 17.7 m
Radar Cross Section
33.884 m², Large (>1 m²)

Expand to show TLE details & history
Last TLE update: 2 days ago

TLE from 2 days ago
0 STARLINK-31127
1 58765U 24011A   26171.38961970 -.00000707  00000-0 -11764-4 0  9998
2 58765  53.1609 256.6789 0001029  59.6062 300.5041 15.30205750135998
Epoch: 2026-06-20T09:21Z
TLE epoch observation values (Epoch: 2026-06-20T09:21:03.142Z)
Latitude
0.00005°
Longitude
-152.1891°
Altitude
475.74 km
Speed
7.629 km/s
True Right ascension
17h 06m 42s
True Declination
0° 00' 00"
Sunlit
Object was in full shadow at epoch
Visualization orbit readout
Latitude
Unknown
Longitude
Unknown
Altitude
Unknown
Speed
Unknown
Apparent Right ascension
Unknown
Apparent Declination
Unknown
Sunlit
N/A
Visualization observer readout
Local Sidereal Time
21:24:56
Azimuth
Unknown
Elevation
Unknown
Doppler factor
Unknown
Orbital elements
Apogee altitude
476.159 km
Perigee altitude
474.749 km
Semi-major axis
6,853.591 km
Eccentricity
0.0001
Inclination
53.1609°
RAAN
256.6789°
Arg. of periapsis
59.6062°
True anomaly
300.49394°
Mean anomaly
300.5041°
Eccentric anomaly
300.49902°
Mean motion
3.8253 °/min
Orbital period
94.11 mins
BSTAR
-0.000011764
Loading maneuver chart data...
Computing Atmospheric mass density...
Loading historical data...
Loading historical data...
Loading historical data...
Loading historical data...
Loading historical data...
Loading historical data...
Loading historical data...

Documentation

Showing up to 5 results
|